Showing default

MIDAS 4, 192

Orbit data source: Space-Track

MIDAS 4, 192 is a payload satellite owned by USAF SSD (US) in LEO that was launched on Sat, 21 Oct 1961 UTC via an ATLAS AGENA B launch vehicle from the Air Force Western Test Range (AFWTR). Payload-class satellites include a variety of spacecraft equipped with specific instruments for various scientific and technological missions. These include communications satellites like Starlink; space stations such as the ISS; scientific satellites like the Hubble; Earth observation satellites from companies like Planet Labs, Umbra, and HawkEye 360; GPS; miniature CubeSats for education and research; and military/defense satellites.

Loading next visibility...
Identifier
192, 1961-028A
Orbit
LEO
Country
Flag of USUS
Related business
Manufacturer
LMSC
Mission
Spacecraft
Bus & Motor
MIDAS, Unknown motor
Mass
~1,540 kg wet, 840 kg dry
Launch date (UTC)
1961-10-21 (65 years ago)
Launch vehicle
ATLAS AGENA B
Launch site
Air Force Western Test Range (AFWTR)
Object type
Payload
Rocket body
Debris
Shape & HBR
Unknown
Radar Cross Section
Large (>1 m²)

Expand to show TLE details & history
Last TLE update: 9 hours ago

TLE from 9 hours ago
0 MIDAS 4
1   192U 61028A   26127.67681339 -.00000009  00000-0 -23223-2 0  9995
2   192  95.8487 215.0977 0134936   7.6145 352.6720  8.67768469 44649
Epoch: 2026-05-07T16:14Z
TLE epoch observation values (Epoch: 2026-05-07T16:14:36.676Z)
Latitude
-0.00001°
Longitude
105.92536°
Altitude
3,493.212 km
Speed
6.398 km/s
True Right ascension
14h 20m 23s
True Declination
0° 00' 00"
Sunlit
Object was in full shadow at epoch
Visualization orbit readout
Latitude
Unknown
Longitude
Unknown
Altitude
Unknown
Speed
Unknown
Apparent Right ascension
Unknown
Apparent Declination
Unknown
Sunlit
N/A
Visualization observer readout
Local Sidereal Time
09:09:44
Azimuth
Unknown
Elevation
Unknown
Doppler factor
Unknown
Orbital elements
Apogee altitude
3,757.738 km
Perigee altitude
3,487.841 km
Semi-major axis
10,000.927 km
Eccentricity
0.01349
Inclination
95.8487°
RAAN
215.0977°
Arg. of periapsis
7.6145°
True anomaly
352.47142°
Mean anomaly
352.672°
Eccentric anomaly
352.57205°
Mean motion
2.17012 °/min
Orbital period
165.89 mins
BSTAR
-0.0023223
Loading maneuver chart data...
Computing Atmospheric mass density...
Loading historical data...
Loading historical data...
Loading historical data...
Loading historical data...
Loading historical data...
Loading historical data...
Loading historical data...

Documentation

Showing up to 5 results
|